Find Kosmos-2165

NORAD ID: 21779 Int'l Des: 1991-077 Owner: UNKSR Country: SU operational
LEOCIRCULARPOLAR

Aktuelle Ansicht

3D-Globus wird geladen...

Über Kosmos-2165

Beschreibung wird geladen...

Nächste Überflüge

Passes for default location (London). Set your location on the main map for personalized predictions.

Höhenverlauf

Loading altitude history...

Zweizeiliger Elementsatz

1 21779U 91077A 26150.71994411 .00000023 00000-0 65633-4 0 9992
2 21779 82.6068 243.3562 0011708 95.7092 71.3928 12.64921038594781
Epoch: 30. Mai 2026 • Age: 21 hours

Aktueller Status

Höhe 1412.7 km
Geschwindigkeit 7.15 km/s
Subsatellitenpunkt -20.04°S, 38.59°W
Startdatum 12. Nov. 1991
Alter 34.5 years
Typ other

Technische Details

Klassifizierung Payload
Masse 225.00 kg
Trockenmasse 225.00 kg
Gesamtmasse 225.00 kg
Länge 1.60 m
Durchmesser 0.80 m
Spannweite 7.00 m
Form Cyl + Ant
Hersteller NPOPM
Bus-Typ Strela-3
Phasenstatus In Orbit
Besitzer/Staat UNKSR/SU

Most Searched